DLH2GY LGTS-LBBG

Flight info

Callsign DLH2GY
Flight time 0h 54m
Altitude 24000
Route ODIKO M987 ATFIR T516 PDV/N0397F230 T517 IXUKO
Aircraft A321/M-SDE3FGHIRWY/LB1

Departure

Time 2026-04-25 05:04
Airport Thessaloniki Macedonia International Airport (LGTS)

Arrival

Time 2026-04-25 05:58
Airport Burgas Airport (LBBG)
Time Latitude Longitude Altitude Speed Heading
2026-04-25 04:30 40.52308 22.97573 16 ft 0 kts 44°
2026-04-25 04:52 40.52307 22.97572 15 ft 1 kts 44°
2026-04-25 04:52 40.52295 22.97557 17 ft 3 kts 44°
2026-04-25 04:52 40.52282 22.97539 15 ft 3 kts 55°
2026-04-25 04:52 40.52275 22.97521 15 ft 3 kts 103°
2026-04-25 04:53 40.52282 22.97502 17 ft 2 kts 135°
2026-04-25 04:53 40.52291 22.97491 19 ft 3 kts 136°
2026-04-25 04:53 40.52300 22.97479 17 ft 0 kts 136°
2026-04-25 04:59 40.52293 22.97488 15 ft 2 kts 136°
2026-04-25 04:59 40.52276 22.97510 15 ft 5 kts 136°
2026-04-25 04:59 40.52248 22.97546 15 ft 7 kts 136°
2026-04-25 05:00 40.52210 22.97595 15 ft 9 kts 136°
2026-04-25 05:00 40.52161 22.97655 15 ft 11 kts 142°
2026-04-25 05:00 40.52099 22.97719 15 ft 12 kts 135°
2026-04-25 05:00 40.52026 22.97755 15 ft 12 kts 137°
2026-04-25 05:01 40.52000 22.97862 15 ft 13 kts 103°
2026-04-25 05:01 40.51977 22.97988 15 ft 15 kts 105°
2026-04-25 05:01 40.51950 22.98125 15 ft 16 kts 104°
2026-04-25 05:01 40.51922 22.98280 15 ft 18 kts 103°
2026-04-25 05:02 40.51890 22.98448 16 ft 18 kts 104°
2026-04-25 05:02 40.51862 22.98598 15 ft 14 kts 102°
2026-04-25 05:02 40.51814 22.98705 15 ft 15 kts 158°
2026-04-25 05:02 40.51715 22.98667 15 ft 13 kts 218°
2026-04-25 05:03 40.51696 22.98551 14 ft 15 kts 282°
2026-04-25 05:03 40.51731 22.98368 15 ft 39 kts 284°
2026-04-25 05:03 40.51865 22.97659 15 ft 118 kts 283°
2026-04-25 05:03 40.52107 22.96328 59 ft 173 kts 282°
2026-04-25 05:04 40.52385 22.94865 940 ft 163 kts 288°
2026-04-25 05:04 40.52720 22.93415 1671 ft 170 kts 289°
2026-04-25 05:04 40.53068 22.91860 2125 ft 186 kts 290°
2026-04-25 05:04 40.53452 22.90151 2543 ft 202 kts 289°
2026-04-25 05:05 40.53858 22.88310 2911 ft 225 kts 289°
2026-04-25 05:05 40.54314 22.86244 3398 ft 245 kts 288°
2026-04-25 05:05 40.54792 22.84036 3897 ft 256 kts 288°
2026-04-25 05:05 40.55277 22.81764 4158 ft 259 kts 289°
2026-04-25 05:06 40.56072 22.79683 4386 ft 258 kts 310°
2026-04-25 05:06 40.57461 22.78222 4658 ft 257 kts 336°
2026-04-25 05:06 40.59208 22.77793 4894 ft 258 kts
2026-04-25 05:06 40.60902 22.78498 4992 ft 262 kts 31°
2026-04-25 05:07 40.62356 22.79961 4984 ft 263 kts 38°
2026-04-25 05:07 40.63718 22.81574 4976 ft 263 kts 43°
2026-04-25 05:07 40.64939 22.83344 4973 ft 265 kts 49°
2026-04-25 05:07 40.66020 22.85329 4963 ft 269 kts 57°
2026-04-25 05:08 40.66901 22.87519 4962 ft 269 kts 64°
2026-04-25 05:08 40.67609 22.89799 4950 ft 267 kts 69°
2026-04-25 05:08 40.68120 22.92136 5462 ft 269 kts 76°
2026-04-25 05:08 40.68431 22.94571 6446 ft 270 kts 82°
2026-04-25 05:09 40.68545 22.97072 7213 ft 276 kts 89°
2026-04-25 05:09 40.68438 22.99588 7995 ft 281 kts 96°
2026-04-25 05:09 40.68102 23.02152 8788 ft 286 kts 98°
2026-04-25 05:09 40.68099 23.04768 9547 ft 288 kts 77°
2026-04-25 05:10 40.68762 23.07219 10304 ft 288 kts 59°
2026-04-25 05:10 40.69992 23.09299 10987 ft 291 kts 41°
2026-04-25 05:10 40.71702 23.10869 11268 ft 309 kts 25°
2026-04-25 05:10 40.73802 23.11762 11504 ft 327 kts
2026-04-25 05:11 40.76106 23.12019 11801 ft 341 kts
2026-04-25 05:11 40.78437 23.12662 12441 ft 346 kts 18°
2026-04-25 05:11 40.80696 23.13818 13086 ft 349 kts 24°
2026-04-25 05:12 40.85074 23.16638 14372 ft 354 kts 27°
2026-04-25 05:12 40.87284 23.18126 14969 ft 357 kts 27°
2026-04-25 05:12 40.89513 23.19612 15531 ft 360 kts 26°
2026-04-25 05:12 40.91780 23.21070 16116 ft 364 kts 25°
2026-04-25 05:13 40.94054 23.22470 16710 ft 366 kts 24°
2026-04-25 05:13 40.96359 23.23932 17315 ft 369 kts 29°
2026-04-25 05:13 40.98481 23.25859 17860 ft 372 kts 39°
2026-04-25 05:13 41.00422 23.28165 18357 ft 376 kts 41°
2026-04-25 05:14 41.02355 23.30535 18813 ft 380 kts 42°
2026-04-25 05:14 41.04263 23.32921 19287 ft 383 kts 42°
2026-04-25 05:14 41.06213 23.35350 19768 ft 385 kts 42°
2026-04-25 05:15 41.10136 23.40166 20790 ft 387 kts 41°
2026-04-25 05:15 41.12126 23.42622 21184 ft 392 kts 41°
2026-04-25 05:15 41.14135 23.45107 21627 ft 395 kts 41°
2026-04-25 05:15 41.16162 23.47597 22135 ft 396 kts 41°
2026-04-25 05:16 41.18168 23.50075 22631 ft 398 kts 41°
2026-04-25 05:16 41.20195 23.52595 22988 ft 400 kts 41°
2026-04-25 05:16 41.22223 23.55135 23263 ft 400 kts 42°
2026-04-25 05:16 41.24228 23.57648 23535 ft 400 kts 41°
2026-04-25 05:17 41.26263 23.60190 23791 ft 401 kts 41°
2026-04-25 05:17 41.28312 23.62742 23989 ft 403 kts 41°
2026-04-25 05:17 41.30353 23.65273 24070 ft 408 kts 41°
2026-04-25 05:17 41.32452 23.67863 24091 ft 414 kts 41°
2026-04-25 05:18 41.34581 23.70485 24075 ft 418 kts 41°
2026-04-25 05:18 41.36715 23.73120 24072 ft 418 kts 41°
2026-04-25 05:18 41.38847 23.75768 24078 ft 417 kts 42°
2026-04-25 05:18 41.40887 23.78455 24093 ft 417 kts 47°
2026-04-25 05:19 41.42609 23.81584 24099 ft 418 kts 53°
2026-04-25 05:19 41.44303 23.84665 24105 ft 416 kts 51°
2026-04-25 05:19 41.46100 23.87697 24088 ft 416 kts 49°
2026-04-25 05:19 41.47948 23.90680 24081 ft 416 kts 48°
2026-04-25 05:20 41.49815 23.93653 24081 ft 416 kts 48°
2026-04-25 05:20 41.51643 23.96595 24087 ft 416 kts 49°
2026-04-25 05:20 41.53476 23.99589 24094 ft 416 kts 49°
2026-04-25 05:20 41.55288 24.02590 24107 ft 415 kts 49°
2026-04-25 05:21 41.57093 24.05620 24108 ft 415 kts 50°
2026-04-25 05:21 41.58875 24.08652 24125 ft 415 kts 50°
2026-04-25 05:21 41.60660 24.11688 24075 ft 415 kts 50°
2026-04-25 05:21 41.62429 24.14688 24059 ft 415 kts 50°
2026-04-25 05:22 41.64225 24.17724 24068 ft 415 kts 50°
2026-04-25 05:22 41.66026 24.20752 24083 ft 414 kts 49°
2026-04-25 05:22 41.67826 24.23759 24083 ft 414 kts 49°
2026-04-25 05:22 41.69603 24.26738 24071 ft 415 kts 50°
2026-04-25 05:23 41.71401 24.29773 24067 ft 416 kts 50°
2026-04-25 05:23 41.73194 24.32818 24073 ft 416 kts 50°
2026-04-25 05:23 41.74999 24.35868 24078 ft 417 kts 50°
2026-04-25 05:23 41.76778 24.38884 24071 ft 417 kts 50°
2026-04-25 05:24 41.78580 24.41955 24065 ft 419 kts 50°
2026-04-25 05:24 41.80382 24.45033 24066 ft 419 kts 50°
2026-04-25 05:24 41.82192 24.48113 24066 ft 420 kts 50°
2026-04-25 05:24 41.83986 24.51148 24067 ft 420 kts 50°
2026-04-25 05:25 41.85812 24.54220 24072 ft 421 kts 50°
2026-04-25 05:25 41.87644 24.57285 24097 ft 421 kts 50°
2026-04-25 05:25 41.89473 24.60370 24033 ft 423 kts 50°
2026-04-25 05:25 41.91300 24.63482 24051 ft 423 kts 50°
2026-04-25 05:26 41.93088 24.66572 24056 ft 424 kts 51°
2026-04-25 05:26 41.94896 24.69706 24058 ft 423 kts 50°
2026-04-25 05:26 41.96701 24.72833 24054 ft 421 kts 50°
2026-04-25 05:26 41.98505 24.75951 24057 ft 420 kts 50°
2026-04-25 05:27 42.00277 24.79002 24052 ft 419 kts 50°
2026-04-25 05:27 42.02079 24.82081 24061 ft 418 kts 50°
2026-04-25 05:27 42.03879 24.85149 24054 ft 417 kts 51°
2026-04-25 05:27 42.05471 24.88422 24043 ft 419 kts 60°
2026-04-25 05:28 42.06646 24.92028 24041 ft 422 kts 67°
2026-04-25 05:28 42.07705 24.95713 24043 ft 423 kts 66°
2026-04-25 05:28 42.08778 24.99350 24043 ft 423 kts 66°
2026-04-25 05:28 42.09888 25.03027 24055 ft 424 kts 65°
2026-04-25 05:29 42.11019 25.06698 24066 ft 425 kts 65°
2026-04-25 05:29 42.12170 25.10375 24048 ft 426 kts 65°
2026-04-25 05:29 42.13330 25.14054 24047 ft 427 kts 65°
2026-04-25 05:29 42.14449 25.17717 24038 ft 428 kts 66°
2026-04-25 05:30 42.15558 25.21457 24064 ft 428 kts 66°
2026-04-25 05:30 42.16650 25.25208 24047 ft 429 kts 66°
2026-04-25 05:30 42.17725 25.28922 23999 ft 431 kts 66°
2026-04-25 05:30 42.18833 25.32688 24020 ft 431 kts 66°
2026-04-25 05:31 42.19943 25.36444 24027 ft 430 kts 66°
2026-04-25 05:31 42.21043 25.40148 24046 ft 428 kts 66°
2026-04-25 05:31 42.22149 25.43878 24048 ft 427 kts 66°
2026-04-25 05:31 42.23246 25.47599 24039 ft 425 kts 66°
2026-04-25 05:32 42.24338 25.51318 24044 ft 424 kts 66°
2026-04-25 05:32 42.25421 25.55014 24030 ft 423 kts 66°
2026-04-25 05:32 42.26491 25.58668 24024 ft 422 kts 66°
2026-04-25 05:32 42.27570 25.62349 24026 ft 420 kts 66°
2026-04-25 05:33 42.28642 25.66017 24018 ft 419 kts 66°
2026-04-25 05:33 42.29723 25.69676 24007 ft 419 kts 66°
2026-04-25 05:33 42.30798 25.73297 24024 ft 422 kts 66°
2026-04-25 05:33 42.31897 25.77011 24023 ft 426 kts 66°
2026-04-25 05:34 42.32987 25.80751 24047 ft 429 kts 66°
2026-04-25 05:34 42.34078 25.84537 24056 ft 432 kts 66°
2026-04-25 05:34 42.35163 25.88282 24045 ft 434 kts 66°
2026-04-25 05:34 42.36264 25.92083 24035 ft 434 kts 67°
2026-04-25 05:35 42.37351 25.95895 24050 ft 432 kts 67°
2026-04-25 05:35 42.38431 25.99666 24035 ft 429 kts 66°
2026-04-25 05:35 42.39514 26.03420 24010 ft 425 kts 66°
2026-04-25 05:35 42.40579 26.07099 24037 ft 423 kts 66°
2026-04-25 05:36 42.41665 26.10837 24042 ft 428 kts 66°
2026-04-25 05:36 42.42750 26.14563 24035 ft 431 kts 66°
2026-04-25 05:36 42.43851 26.18353 24006 ft 433 kts 66°
2026-04-25 05:36 42.44956 26.22165 24023 ft 434 kts 67°
2026-04-25 05:37 42.46044 26.25987 24044 ft 434 kts 67°
2026-04-25 05:37 42.47111 26.29767 24027 ft 434 kts 67°
2026-04-25 05:37 42.48187 26.33583 24035 ft 431 kts 67°
2026-04-25 05:37 42.49254 26.37374 24032 ft 429 kts 67°
2026-04-25 05:38 42.50306 26.41105 24040 ft 429 kts 67°
2026-04-25 05:38 42.51373 26.44879 24042 ft 428 kts 67°
2026-04-25 05:38 42.52443 26.48642 24017 ft 428 kts 66°
2026-04-25 05:38 42.53518 26.52391 23793 ft 423 kts 66°
2026-04-25 05:39 42.54566 26.56048 23534 ft 417 kts 66°
2026-04-25 05:39 42.55623 26.59719 23182 ft 417 kts 66°
2026-04-25 05:39 42.56678 26.63382 22870 ft 416 kts 66°
2026-04-25 05:39 42.57720 26.67064 22519 ft 417 kts 67°
2026-04-25 05:40 42.58744 26.70748 22203 ft 416 kts 67°
2026-04-25 05:40 42.59702 26.74416 21899 ft 417 kts 72°
2026-04-25 05:40 42.60277 26.78288 21606 ft 419 kts 81°
2026-04-25 05:40 42.60429 26.82257 21286 ft 420 kts 88°
2026-04-25 05:41 42.60416 26.86182 20903 ft 420 kts 88°
2026-04-25 05:41 42.60450 26.90138 20237 ft 415 kts 87°
2026-04-25 05:41 42.60526 26.93987 19635 ft 410 kts 86°
2026-04-25 05:41 42.60620 26.97832 19128 ft 403 kts 86°
2026-04-25 05:42 42.60712 27.01606 18656 ft 396 kts 86°
2026-04-25 05:42 42.60803 27.05318 18194 ft 389 kts 86°
2026-04-25 05:42 42.60888 27.08914 17690 ft 382 kts 86°
2026-04-25 05:42 42.60930 27.12519 17062 ft 379 kts 88°
2026-04-25 05:43 42.60926 27.16090 16481 ft 376 kts 88°
2026-04-25 05:43 42.60907 27.19618 15989 ft 370 kts 88°
2026-04-25 05:43 42.60899 27.23016 15674 ft 359 kts 88°
2026-04-25 05:43 42.60913 27.26347 15523 ft 345 kts 87°
2026-04-25 05:44 42.60942 27.29554 15360 ft 331 kts 87°
2026-04-25 05:44 42.60971 27.32588 15182 ft 320 kts 87°
2026-04-25 05:44 42.60984 27.35576 14914 ft 313 kts 88°
2026-04-25 05:44 42.61137 27.38503 14564 ft 307 kts 75°
2026-04-25 05:45 42.61857 27.41197 14221 ft 300 kts 60°
2026-04-25 05:45 42.62978 27.43522 13793 ft 297 kts 48°
2026-04-25 05:45 42.64427 27.45530 13262 ft 297 kts 41°
2026-04-25 05:45 42.65922 27.47490 12809 ft 297 kts 42°
2026-04-25 05:46 42.67370 27.49450 12368 ft 296 kts 43°
2026-04-25 05:46 42.68826 27.51424 11945 ft 295 kts 43°
2026-04-25 05:46 42.70280 27.53354 11533 ft 294 kts 42°
2026-04-25 05:46 42.71748 27.55290 11141 ft 292 kts 42°
2026-04-25 05:47 42.73203 27.57214 10774 ft 291 kts 43°
2026-04-25 05:47 42.74648 27.59131 10436 ft 288 kts 43°
2026-04-25 05:47 42.76053 27.61004 10280 ft 278 kts 43°
2026-04-25 05:47 42.77394 27.62796 10118 ft 269 kts 43°
2026-04-25 05:48 42.78711 27.64558 9963 ft 261 kts 43°
2026-04-25 05:48 42.79986 27.66263 9801 ft 253 kts 43°
2026-04-25 05:48 42.80775 27.67315 9692 ft 249 kts 42°
2026-04-25 05:48 42.81992 27.68933 9440 ft 245 kts 42°
2026-04-25 05:49 42.83212 27.70564 9048 ft 247 kts 43°
2026-04-25 05:49 42.84446 27.72207 8666 ft 249 kts 43°
2026-04-25 05:49 42.85668 27.73858 8286 ft 251 kts 47°
2026-04-25 05:49 42.86451 27.75964 7920 ft 252 kts 82°
2026-04-25 05:50 42.86249 27.78322 7514 ft 255 kts 113°
2026-04-25 05:50 42.85224 27.80271 7189 ft 253 kts 135°
2026-04-25 05:50 42.83972 27.81977 6823 ft 255 kts 139°
2026-04-25 05:50 42.82471 27.83051 6630 ft 245 kts 173°
2026-04-25 05:51 42.80815 27.82778 6302 ft 241 kts 205°
2026-04-25 05:51 42.79475 27.81462 5977 ft 237 kts 225°
2026-04-25 05:51 42.78311 27.79888 5720 ft 232 kts 224°
2026-04-25 05:51 42.77165 27.78361 5377 ft 229 kts 224°
2026-04-25 05:52 42.76054 27.76879 5072 ft 224 kts 225°
2026-04-25 05:52 42.74957 27.75409 4772 ft 218 kts 225°
2026-04-25 05:52 42.73883 27.73973 4468 ft 214 kts 225°
2026-04-25 05:52 42.73183 27.73040 4313 ft 209 kts 225°
2026-04-25 05:53 42.71826 27.71225 3956 ft 201 kts 225°
2026-04-25 05:53 42.71177 27.70356 3778 ft 195 kts 225°
2026-04-25 05:53 42.69914 27.68683 3412 ft 186 kts 225°
2026-04-25 05:53 42.68997 27.67455 3178 ft 183 kts 225°
2026-04-25 05:54 42.68395 27.66651 3013 ft 183 kts 226°
2026-04-25 05:54 42.67489 27.65443 2730 ft 181 kts 225°
2026-04-25 05:54 42.65706 27.63069 2283 ft 179 kts 226°
2026-04-25 05:55 42.64821 27.61896 1999 ft 175 kts 227°
2026-04-25 05:55 42.63704 27.60411 1745 ft 162 kts 226°
2026-04-25 05:55 42.63174 27.59704 1616 ft 155 kts 227°
2026-04-25 05:55 42.62416 27.58698 1397 ft 152 kts 226°
2026-04-25 05:56 42.61673 27.57711 1184 ft 147 kts 226°
2026-04-25 05:56 42.60950 27.56751 958 ft 143 kts 226°
2026-04-25 05:56 42.60243 27.55812 780 ft 140 kts 226°
2026-04-25 05:56 42.59556 27.54905 581 ft 138 kts 225°
2026-04-25 05:57 42.58878 27.54007 401 ft 134 kts 225°
2026-04-25 05:57 42.58208 27.53112 229 ft 136 kts 225°
2026-04-25 05:57 42.57549 27.52239 147 ft 121 kts 226°
2026-04-25 05:57 42.57030 27.51549 149 ft 89 kts 224°
2026-04-25 05:58 42.56648 27.51042 144 ft 64 kts 225°
2026-04-25 05:58 42.56443 27.50777 148 ft 28 kts 213°
2026-04-25 05:58 42.56298 27.50704 148 ft 17 kts 195°
2026-04-25 05:58 42.56190 27.50741 144 ft 19 kts 124°
2026-04-25 05:59 42.56215 27.50878 142 ft 12 kts 47°
2026-04-25 05:59 42.56277 27.50967 143 ft 14 kts 46°
2026-04-25 05:59 42.56340 27.51070 143 ft 15 kts 51°
2026-04-25 05:59 42.56419 27.51187 141 ft 18 kts 48°
2026-04-25 06:00 42.56505 27.51320 142 ft 19 kts 49°
2026-04-25 06:00 42.56589 27.51447 142 ft 18 kts 49°
2026-04-25 06:00 42.56647 27.51536 145 ft 12 kts 50°
2026-04-25 06:00 42.56701 27.51623 146 ft 11 kts 48°
2026-04-25 06:01 42.56734 27.51679 146 ft 6 kts 64°
2026-04-25 06:01 42.56736 27.51727 147 ft 3 kts 91°
2026-04-25 06:01 42.56735 27.51754 148 ft 3 kts 92°
2026-04-25 06:01 42.56735 27.51757 148 ft 1 kts 92°
2026-04-25 06:02 42.56735 27.51763 148 ft 1 kts 92°